Time,TemperatureF,DewpointF,PressureIn,WindDirection,WindDirectionDegrees,WindSpeedMPH,WindSpeedGustMPH,Humidity,HourlyPrecipIn,Conditions,Clouds,dailyrainin,SoftwareType,DateUTC
2013-01-02 00:02:00,26.0,22.0,28.70,NW,305,0.0,3.0,86,0.00,,,0.00,,2013-01-02 08:02:00,
2013-01-02 00:11:00,26.0,22.0,28.70,NW,305,0.0,3.0,86,0.00,,,0.00,,2013-01-02 08:11:00,
2013-01-02 00:22:00,26.0,22.0,28.69,North,354,0.0,2.0,85,0.00,,,0.00,,2013-01-02 08:22:00,
2013-01-02 00:32:00,26.0,22.0,28.69,SE,136,0.0,2.0,84,0.00,,,0.00,,2013-01-02 08:32:00,
2013-01-02 00:42:00,26.0,22.0,28.69,SE,136,0.0,2.0,84,0.00,,,0.00,,2013-01-02 08:42:00,
2013-01-02 00:52:00,26.0,22.0,28.69,SSE,167,0.0,0.0,85,0.00,,,0.00,,2013-01-02 08:52:00,
2013-01-02 01:02:00,26.0,22.0,28.69,NE,34,0.0,3.0,84,0.00,,,0.00,,2013-01-02 09:02:00,
2013-01-02 01:12:00,26.0,22.0,28.69,NE,34,0.0,3.0,84,0.00,,,0.00,,2013-01-02 09:12:00,
2013-01-02 01:22:00,26.0,22.0,28.69,North,5,0.0,1.0,84,0.00,,,0.00,,2013-01-02 09:22:00,
2013-01-02 01:32:00,26.0,22.0,28.68,WNW,303,0.0,1.0,85,0.00,,,0.00,,2013-01-02 09:32:00,
2013-01-02 01:42:00,26.0,22.0,28.68,WNW,303,0.0,1.0,85,0.00,,,0.00,,2013-01-02 09:42:00,
2013-01-02 01:52:00,26.0,22.0,28.68,NW,321,0.0,1.0,86,0.00,,,0.00,,2013-01-02 09:52:00,
2013-01-02 02:02:00,26.0,22.0,28.68,NE,38,0.0,4.0,85,0.00,,,0.00,,2013-01-02 10:02:00,
2013-01-02 02:12:00,26.0,22.0,28.68,NE,38,0.0,4.0,85,0.00,,,0.00,,2013-01-02 10:12:00,
2013-01-02 02:22:00,26.0,22.0,28.69,NE,36,0.0,2.0,86,0.00,,,0.00,,2013-01-02 10:22:00,
2013-01-02 02:32:00,26.0,22.0,28.69,West,273,0.0,2.0,85,0.00,,,0.00,,2013-01-02 10:32:00,
2013-01-02 02:42:00,26.0,22.0,28.69,West,273,0.0,2.0,85,0.00,,,0.00,,2013-01-02 10:42:00,
2013-01-02 02:52:00,26.0,22.0,28.69,NW,311,0.0,1.0,84,0.00,,,0.00,,2013-01-02 10:52:00,
2013-01-02 03:02:00,26.0,22.0,28.69,NE,53,0.0,3.0,85,0.00,,,0.00,,2013-01-02 11:02:00,
2013-01-02 03:11:00,26.0,22.0,28.69,NE,53,0.0,3.0,85,0.00,,,0.00,,2013-01-02 11:11:00,
2013-01-02 03:22:00,26.0,22.0,28.68,WNW,292,0.0,5.0,85,0.00,,,0.00,,2013-01-02 11:22:00,
2013-01-02 03:32:00,26.0,22.0,28.68,NE,43,0.0,4.0,85,0.00,,,0.00,,2013-01-02 11:32:00,
2013-01-02 03:42:00,26.0,22.0,28.68,NE,43,0.0,4.0,85,0.00,,,0.00,,2013-01-02 11:42:00,
2013-01-02 03:52:00,26.0,22.0,28.68,NNW,343,0.0,4.0,84,0.00,,,0.00,,2013-01-02 11:52:00,
2013-01-02 04:02:00,26.0,22.0,28.68,East,83,1.0,4.0,84,0.00,,,0.00,,2013-01-02 12:02:00,
2013-01-02 04:12:00,26.0,22.0,28.68,East,83,1.0,4.0,84,0.00,,,0.00,,2013-01-02 12:12:00,
2013-01-02 04:22:00,26.0,22.0,28.68,ENE,68,2.0,4.0,84,0.00,,,0.00,,2013-01-02 12:22:00,
2013-01-02 04:32:00,26.0,22.0,28.68,NNE,20,2.0,5.0,84,0.00,,,0.00,,2013-01-02 12:32:00,
2013-01-02 04:42:00,26.0,22.0,28.68,NNE,20,2.0,5.0,84,0.00,,,0.00,,2013-01-02 12:42:00,
2013-01-02 04:52:00,26.0,22.0,28.67,East,79,1.0,4.0,83,0.00,,,0.00,,2013-01-02 12:52:00,
2013-01-02 05:02:00,25.0,21.0,28.67,ESE,110,0.0,4.0,83,0.00,,,0.00,,2013-01-02 13:02:00,
2013-01-02 05:12:00,25.0,21.0,28.67,ESE,110,0.0,4.0,83,0.00,,,0.00,,2013-01-02 13:12:00,
2013-01-02 05:22:00,25.0,21.0,28.67,SE,127,0.0,3.0,83,0.00,,,0.00,,2013-01-02 13:22:00,
2013-01-02 05:32:00,25.0,21.0,28.66,ENE,58,1.0,4.0,83,0.00,,,0.00,,2013-01-02 13:32:00,
2013-01-02 05:42:00,25.0,21.0,28.66,ENE,58,1.0,4.0,83,0.00,,,0.00,,2013-01-02 13:42:00,
2013-01-02 05:52:00,25.0,21.0,28.66,ESE,107,1.0,3.0,83,0.00,,,0.00,,2013-01-02 13:52:00,
2013-01-02 06:02:00,25.0,21.0,28.66,NNW,334,0.0,1.0,83,0.00,,,0.00,,2013-01-02 14:02:00,
2013-01-02 06:12:00,25.0,21.0,28.66,NNW,334,0.0,1.0,83,0.00,,,0.00,,2013-01-02 14:12:00,
2013-01-02 06:22:00,25.0,21.0,28.66,NNW,334,0.0,1.0,84,0.00,,,0.00,,2013-01-02 14:22:00,
2013-01-02 06:32:00,25.0,21.0,28.66,NNW,335,0.0,1.0,85,0.00,,,0.00,,2013-01-02 14:32:00,
2013-01-02 06:42:00,25.0,21.0,28.66,NNW,335,0.0,1.0,85,0.00,,,0.00,,2013-01-02 14:42:00,
2013-01-02 06:53:00,25.0,21.0,28.66,NNW,334,0.0,1.0,85,0.00,,,0.00,,2013-01-02 14:53:00,
2013-01-02 07:02:00,25.0,21.0,28.66,WSW,250,0.0,1.0,85,0.00,,,0.00,,2013-01-02 15:02:00,
2013-01-02 07:12:00,25.0,21.0,28.66,WSW,250,0.0,1.0,85,0.00,,,0.00,,2013-01-02 15:12:00,
2013-01-02 07:22:00,25.0,21.0,28.66,WSW,250,0.0,1.0,85,0.00,,,0.00,,2013-01-02 15:22:00,
2013-01-02 07:33:00,25.0,21.0,28.66,SSW,212,0.0,1.0,86,0.00,,,0.00,,2013-01-02 15:33:00,
2013-01-02 07:42:00,25.0,21.0,28.66,SSW,212,0.0,1.0,86,0.00,,,0.00,,2013-01-02 15:42:00,
2013-01-02 07:52:00,25.0,21.0,28.65,SW,228,0.0,0.0,86,0.00,,,0.00,,2013-01-02 15:52:00,
2013-01-02 08:02:00,25.0,22.0,28.65,SW,228,0.0,0.0,87,0.00,,,0.00,,2013-01-02 16:02:00,
2013-01-02 08:12:00,25.0,22.0,28.65,SW,228,0.0,0.0,87,0.00,,,0.00,,2013-01-02 16:12:00,
2013-01-02 08:22:00,25.0,22.0,28.65,ENE,60,0.0,1.0,87,0.00,,,0.00,,2013-01-02 16:22:00,
2013-01-02 08:33:00,25.0,22.0,28.66,ENE,60,0.0,0.0,88,0.00,,,0.00,,2013-01-02 16:33:00,
2013-01-02 08:42:00,25.0,22.0,28.66,ENE,60,0.0,0.0,88,0.00,,,0.00,,2013-01-02 16:42:00,
2013-01-02 08:53:00,25.0,22.0,28.66,WSW,243,0.0,1.0,88,0.00,,,0.00,,2013-01-02 16:53:00,
2013-01-02 09:03:00,25.0,22.0,28.66,WSW,250,0.0,1.0,88,0.00,,,0.00,,2013-01-02 17:03:00,
2013-01-02 09:12:00,25.0,22.0,28.66,WSW,250,0.0,1.0,88,0.00,,,0.00,,2013-01-02 17:12:00,
2013-01-02 09:22:00,26.0,23.0,28.66,West,260,0.0,1.0,89,0.00,,,0.00,,2013-01-02 17:22:00,
2013-01-02 09:33:00,26.0,23.0,28.67,SW,232,0.0,1.0,88,0.00,,,0.00,,2013-01-02 17:33:00,
2013-01-02 09:42:00,26.0,23.0,28.67,SW,232,0.0,1.0,88,0.00,,,0.00,,2013-01-02 17:42:00,
2013-01-02 09:53:00,26.0,23.0,28.67,West,280,0.0,1.0,87,0.00,,,0.00,,2013-01-02 17:53:00,
2013-01-02 10:02:00,26.0,22.0,28.67,WNW,300,0.0,1.0,86,0.00,,,0.00,,2013-01-02 18:02:00,
2013-01-02 10:12:00,26.0,22.0,28.67,WNW,300,0.0,1.0,86,0.00,,,0.00,,2013-01-02 18:12:00,
2013-01-02 10:22:00,26.0,23.0,28.67,WNW,292,0.0,1.0,88,0.00,,,0.00,,2013-01-02 18:22:00,
2013-01-02 10:33:00,26.0,22.0,28.67,WNW,297,0.0,1.0,86,0.00,,,0.00,,2013-01-02 18:33:00,
2013-01-02 10:42:00,26.0,22.0,28.67,WNW,297,0.0,1.0,86,0.00,,,0.00,,2013-01-02 18:42:00,
2013-01-02 10:53:00,27.0,23.0,28.67,WNW,294,0.0,1.0,86,0.00,,,0.00,,2013-01-02 18:53:00,
2013-01-02 11:02:00,27.0,23.0,28.66,NW,307,1.0,3.0,86,0.00,,,0.00,,2013-01-02 19:02:00,
2013-01-02 11:12:00,27.0,23.0,28.66,NW,307,1.0,3.0,86,0.00,,,0.00,,2013-01-02 19:12:00,
2013-01-02 11:22:00,27.0,23.0,28.66,NW,304,0.0,2.0,86,0.00,,,0.00,,2013-01-02 19:22:00,
2013-01-02 11:32:00,27.0,24.0,28.66,NW,312,1.0,3.0,87,0.00,,,0.00,,2013-01-02 19:32:00,
2013-01-02 11:42:00,27.0,24.0,28.66,NW,312,1.0,3.0,87,0.00,,,0.00,,2013-01-02 19:42:00,
2013-01-02 11:52:00,27.0,23.0,28.65,WNW,286,1.0,3.0,86,0.00,,,0.00,,2013-01-02 19:52:00,
2013-01-02 12:02:00,27.0,23.0,28.65,WNW,291,0.0,2.0,86,0.00,,,0.00,,2013-01-02 20:02:00,
2013-01-02 12:12:00,27.0,23.0,28.65,WNW,291,0.0,2.0,86,0.00,,,0.00,,2013-01-02 20:12:00,
2013-01-02 12:22:00,27.0,23.0,28.65,NW,309,0.0,1.0,85,0.00,,,0.00,,2013-01-02 20:22:00,
2013-01-02 12:32:00,28.0,24.0,28.64,WSW,243,0.0,1.0,84,0.00,,,0.00,,2013-01-02 20:32:00,
2013-01-02 12:42:00,28.0,24.0,28.64,WSW,243,0.0,1.0,84,0.00,,,0.00,,2013-01-02 20:42:00,
2013-01-02 12:53:00,28.0,24.0,28.64,West,271,0.0,1.0,83,0.00,,,0.00,,2013-01-02 20:53:00,
2013-01-02 13:02:00,28.0,23.0,28.63,West,264,0.0,2.0,82,0.00,,,0.00,,2013-01-02 21:02:00,
2013-01-02 13:12:00,28.0,23.0,28.63,West,264,0.0,2.0,82,0.00,,,0.00,,2013-01-02 21:12:00,
2013-01-02 13:22:00,28.0,23.0,28.63,West,275,0.0,2.0,82,0.00,,,0.00,,2013-01-02 21:22:00,
2013-01-02 13:32:00,28.0,23.0,28.63,NW,309,0.0,2.0,81,0.00,,,0.00,,2013-01-02 21:32:00,
2013-01-02 13:42:00,28.0,23.0,28.63,NW,309,0.0,2.0,81,0.00,,,0.00,,2013-01-02 21:42:00,
2013-01-02 13:52:00,28.0,23.0,28.63,NW,311,0.0,1.0,82,0.00,,,0.00,,2013-01-02 21:52:00,
2013-01-02 14:02:00,28.0,23.0,28.62,WNW,297,0.0,1.0,81,0.00,,,0.00,,2013-01-02 22:02:00,
2013-01-02 14:12:00,28.0,23.0,28.62,WNW,297,0.0,1.0,81,0.00,,,0.00,,2013-01-02 22:12:00,
2013-01-02 14:22:00,28.0,23.0,28.62,NW,314,0.0,2.0,81,0.00,,,0.00,,2013-01-02 22:22:00,
2013-01-02 14:32:00,28.0,23.0,28.62,WNW,294,0.0,1.0,82,0.00,,,0.00,,2013-01-02 22:32:00,
2013-01-02 14:42:00,28.0,23.0,28.62,WNW,294,0.0,1.0,82,0.00,,,0.00,,2013-01-02 22:42:00,
2013-01-02 14:52:00,28.0,23.0,28.62,WSW,253,0.0,1.0,82,0.00,,,0.00,,2013-01-02 22:52:00,
2013-01-02 15:02:00,28.0,23.0,28.62,WSW,253,0.0,1.0,82,0.00,,,0.00,,2013-01-02 23:02:00,
2013-01-02 15:12:00,28.0,23.0,28.62,WSW,253,0.0,1.0,82,0.00,,,0.00,,2013-01-02 23:12:00,
2013-01-02 15:22:00,28.0,23.0,28.62,NNE,15,0.0,3.0,81,0.00,,,0.00,,2013-01-02 23:22:00,
2013-01-02 15:33:00,28.0,23.0,28.62,North,8,0.0,1.0,82,0.00,,,0.00,,2013-01-02 23:33:00,
2013-01-02 15:42:00,28.0,23.0,28.62,North,8,0.0,1.0,82,0.00,,,0.00,,2013-01-02 23:42:00,
2013-01-02 15:52:00,28.0,23.0,28.62,North,11,0.0,1.0,82,0.00,,,0.00,,2013-01-02 23:52:00,
2013-01-02 16:02:00,28.0,23.0,28.62,North,11,0.0,0.0,82,0.00,,,0.00,,2013-01-03 00:02:00,
2013-01-02 16:12:00,28.0,23.0,28.62,North,11,0.0,0.0,82,0.00,,,0.00,,2013-01-03 00:12:00,
2013-01-02 16:22:00,27.0,23.0,28.62,NNE,25,0.0,1.0,83,0.00,,,0.00,,2013-01-03 00:22:00,
2013-01-02 16:36:00,27.0,23.0,28.62,WSW,255,0.0,1.0,84,0.00,,,0.00,,2013-01-03 00:36:00,
2013-01-02 16:42:00,27.0,23.0,28.62,WSW,255,0.0,1.0,84,0.00,,,0.00,,2013-01-03 00:42:00,
2013-01-02 16:52:00,27.0,23.0,28.62,WSW,257,0.0,0.0,85,0.00,,,0.00,,2013-01-03 00:52:00,
2013-01-02 17:02:00,27.0,23.0,28.62,WNW,294,0.0,2.0,84,0.00,,,0.00,,2013-01-03 01:02:00,
2013-01-02 17:12:00,27.0,23.0,28.62,WNW,294,0.0,2.0,84,0.00,,,0.00,,2013-01-03 01:12:00,
2013-01-02 17:22:00,27.0,23.0,28.61,NNW,329,0.0,1.0,85,0.00,,,0.00,,2013-01-03 01:22:00,
2013-01-02 17:32:00,27.0,23.0,28.61,NNW,330,0.0,1.0,85,0.00,,,0.00,,2013-01-03 01:32:00,
2013-01-02 17:42:00,27.0,23.0,28.61,NNW,330,0.0,1.0,85,0.00,,,0.00,,2013-01-03 01:42:00,
2013-01-02 17:52:00,26.0,22.0,28.61,NNW,330,0.0,0.0,86,0.00,,,0.00,,2013-01-03 01:52:00,
2013-01-02 18:02:00,26.0,22.0,28.61,NW,318,0.0,1.0,86,0.00,,,0.00,,2013-01-03 02:02:00,
2013-01-02 18:12:00,26.0,22.0,28.61,NW,318,0.0,1.0,86,0.00,,,0.00,,2013-01-03 02:12:00,
2013-01-02 18:22:00,26.0,22.0,28.61,NW,318,0.0,0.0,86,0.00,,,0.00,,2013-01-03 02:22:00,
2013-01-02 18:32:00,26.0,23.0,28.61,NW,318,0.0,0.0,87,0.00,,,0.00,,2013-01-03 02:32:00,
2013-01-02 18:42:00,26.0,23.0,28.61,NW,318,0.0,0.0,87,0.00,,,0.00,,2013-01-03 02:42:00,
2013-01-02 18:52:00,26.0,23.0,28.61,NW,318,0.0,0.0,87,0.00,,,0.00,,2013-01-03 02:52:00,
2013-01-02 19:02:00,26.0,22.0,28.61,WNW,291,0.0,0.0,86,0.00,,,0.00,,2013-01-03 03:02:00,
2013-01-02 19:12:00,26.0,23.0,28.61,WNW,291,0.0,0.0,87,0.00,,,0.00,,2013-01-03 03:12:00,
2013-01-02 19:22:00,26.0,23.0,28.61,WNW,291,0.0,0.0,87,0.00,,,0.00,,2013-01-03 03:22:00,
2013-01-02 19:46:00,26.0,23.0,28.60,West,278,0.0,1.0,87,0.00,,,0.00,,2013-01-03 03:46:00,
2013-01-02 19:52:00,26.0,22.0,28.60,WSW,245,0.0,1.0,86,0.00,,,0.00,,2013-01-03 03:52:00,
2013-01-02 20:02:00,26.0,23.0,28.59,WSW,245,0.0,1.0,87,0.00,,,0.00,,2013-01-03 04:02:00,
2013-01-02 20:12:00,26.0,23.0,28.59,WSW,245,0.0,1.0,87,0.00,,,0.00,,2013-01-03 04:12:00,
2013-01-02 20:22:00,26.0,23.0,28.59,WSW,246,0.0,0.0,87,0.00,,,0.00,,2013-01-03 04:22:00,
2013-01-02 20:32:00,26.0,23.0,28.59,WSW,245,0.0,1.0,87,0.00,,,0.00,,2013-01-03 04:32:00,
2013-01-02 20:42:00,26.0,23.0,28.59,WSW,245,0.0,1.0,87,0.00,,,0.00,,2013-01-03 04:42:00,
2013-01-02 20:52:00,26.0,22.0,28.59,WSW,245,0.0,0.0,86,0.00,,,0.00,,2013-01-03 04:52:00,
2013-01-02 21:03:00,26.0,23.0,28.59,WSW,246,0.0,0.0,87,0.00,,,0.00,,2013-01-03 05:03:00,
2013-01-02 21:12:00,26.0,23.0,28.59,WSW,246,0.0,0.0,87,0.00,,,0.00,,2013-01-03 05:12:00,
2013-01-02 21:22:00,26.0,23.0,28.59,WSW,246,0.0,0.0,87,0.00,,,0.00,,2013-01-03 05:22:00,
2013-01-02 21:33:00,26.0,23.0,28.59,NW,311,0.0,2.0,87,0.00,,,0.00,,2013-01-03 05:33:00,
2013-01-02 21:42:00,26.0,23.0,28.59,NW,311,0.0,2.0,87,0.00,,,0.00,,2013-01-03 05:42:00,
2013-01-02 21:52:00,26.0,23.0,28.58,NW,322,1.0,3.0,87,0.00,,,0.00,,2013-01-03 05:52:00,
2013-01-02 22:02:00,26.0,23.0,28.58,NW,309,1.0,2.0,88,0.00,,,0.00,,2013-01-03 06:02:00,
2013-01-02 22:12:00,26.0,23.0,28.58,NW,309,1.0,2.0,88,0.00,,,0.00,,2013-01-03 06:12:00,
2013-01-02 22:22:00,26.0,23.0,28.58,WNW,286,1.0,3.0,87,0.00,,,0.00,,2013-01-03 06:22:00,
2013-01-02 22:32:00,26.0,22.0,28.58,NW,318,1.0,3.0,86,0.00,,,0.00,,2013-01-03 06:32:00,
2013-01-02 22:42:00,26.0,22.0,28.58,NW,318,1.0,3.0,86,0.00,,,0.00,,2013-01-03 06:42:00,
2013-01-02 22:52:00,26.0,22.0,28.58,NW,304,1.0,3.0,86,0.00,,,0.00,,2013-01-03 06:52:00,
2013-01-02 23:02:00,26.0,22.0,28.57,WNW,295,1.0,3.0,85,0.00,,,0.00,,2013-01-03 07:02:00,
2013-01-02 23:12:00,26.0,22.0,28.57,WNW,295,1.0,3.0,85,0.00,,,0.00,,2013-01-03 07:12:00,
2013-01-02 23:22:00,26.0,22.0,28.57,NW,312,2.0,4.0,84,0.00,,,0.00,,2013-01-03 07:22:00,
2013-01-02 23:32:00,26.0,22.0,28.56,NNW,330,2.0,5.0,85,0.00,,,0.00,,2013-01-03 07:32:00,
2013-01-02 23:42:00,26.0,22.0,28.56,NNW,330,2.0,5.0,85,0.00,,,0.00,,2013-01-03 07:42:00,
2013-01-02 23:52:00,26.0,22.0,28.56,NNW,335,3.0,5.0,86,0.00,,,0.00,,2013-01-03 07:52:00,